Location: Mahannah Oil Field
(37.4664°N, 96.6003°W)
Time: 16:09:47
(UTC+00:00)

Vanguard 2 Rocket - Pass Details

Date: 18 June 2021
Orbit: 554 x 3325 km, 32.9° (Epoch: 24 July)

Event Time Altitude Azimuth Distance (km) Brightness Sun altitude
Rises 01:46:03 0° 236° (WSW) 7,259 11.9 -0.2°
Reaches altitude 10° 01:51:02 10° 233° (SW) 6,279 11.5 -1.0°
Maximum altitude 02:10:29 60° 161° (SSE) 3,168 9.4 -4.3°
Drops below altitude 10° 02:24:02 10° 86° (E) 4,560 10.0 -6.5°
Sets 02:27:00 0° 83° (E) 5,248 10.4 -7.0°
